Temperature
15 15 15 15 15 15 15 15 14 14 14 14 14 14 14 13 13 13 13 13 13 13 13 13 13 12 12 12 12 12 12 12 12 11 11 11 11 11 11 10 10 10 10
15 15 15 15 15 15 15 15 14 14 14 14 14 14 13 13 13 13 13 13 13 13 13 13 13 12 12 12 12 12 12 12 12 11 11 11 11 10 10 10 10 10 10
15 15 15 15 15 15 14 14 14 14 14 14 14 14 13 13 13 13 13 13 13 12 12 12 12 12 12 12 12 12 12 12 11 11 11 11 11 10 10 10 10 10 10
15 15 15 15 14 14 14 14 14 14 14 14 14 14 13 13 13 13 13 13 12 12 12 12 12 12 12 12 12 12 12 11 11 11 11 11 10 10 10 10 10 10 10
14 14 14 14 14 14 14 14 14 14 14 14 14 13 13 13 13 13 12 12 12 12 12 12 12 12 12 12 12 12 11 11 11 11 11 10 10 10 10 10 10 10 10
14 14 14 14 14 14 14 14 13 13 13 13 13 13 13 13 13 12 12 12 12 12 12 12 12 12 12 12 11 11 11 11 11 11 11 11 10 10 10 10 10 9 9
14 14 14 14 13 13 13 13 13 13 13 13 13 13 13 13 12 12 12 12 12 12 12 12 12 12 11 11 11 11 11 11 11 11 11 10 10 10 10 10 9 9 9
14 14 14 13 13 13 13 13 13 13 13 13 13 13 12 12 12 12 12 12 12 12 12 11 11 11 11 11 11 11 11 11 11 10 10 10 10 10 10 9 9 9 9
14 14 13 13 13 13 12 12 12 12 12 12 12 12 12 12 12 12 12 11 11 11 11 11 11 11 11 11 11 11 11 10 10 10 10 10 9 9 9 9 9 9 9
14 13 13 13 13 12 12 12 12 12 12 12 12 12 12 12 12 11 11 11 11 11 11 11 11 11 10 10 10 10 10 10 10 10 10 9 9 9 9 9 9 9 8
13 13 13 13 12 12 12 12 12 12 12 12 12 12 12 12 11 11 11 11 11 11 11 11 10 10 10 10 10 10 10 10 10 9 9 9 9 9 9 9 8 8 8
13 13 13 12 12 12 12 11 11 11 11 11 11 11 11 11 11 11 11 11 11 10 10 10 10 10 10 10 10 10 9 9 9 9 9 9 9 9 8 8 8 8 8
12 12 12 12 12 11 11 11 11 11 11 11 11 11 11 11 11 11 11 11 10 10 10 10 10 10 9 9 9 9 9 9 9 9 9 9 8 8 8 8 8 8 7
12 12 12 12 12 11 11 11 11 11 10 10 10 11 11 11 11 10 10 10 10 10 10 10 9 9 9 9 9 9 9 8 8 8 8 8 8 8 8 7 7 7 7
11 11 11 11 11 11 11 11 11 10 10 10 10 10 11 11 11 10 10 10 10 10 9 9 9 9 9 9 9 8 8 8 8 8 8 8 7 7 7 7 7 7 7
11 11 11 11 11 11 10 10 10 10 10 10 10 10 10 10 10 10 10 10 10 9 9 9 9 9 9 9 8 8 8 8 8 8 7 7 7 7 7 7 7 6 6
10 10 10 10 10 10 10 10 10 10 10 10 10 9 9 10 9 9 9 9 9 9 9 9 9 9 8 8 8 8 8 8 7 7 7 7 7 7 7 7 6 6 6
10 10 10 10 10 10 10 10 10 9 9 10 9 9 9 9 9 9 9 9 9 9 9 9 9 8 8 8 8 8 8 7 7 7 7 7 7 7 6 6 6 6 6
10 10 10 10 10 9 9 9 9 9 9 9 9 9 9 9 8 8 8 8 8 8 8 8 8 8 8 8 8 8 7 7 7 7 7 7 7 6 6 6 6 6 6
9 9 9 9 9 9 9 9 9 9 9 9 9 9 8 8 8 8 8 8 8 8 8 8 8 8 8 8 8 7 7 7 7 7 7 6 6 6 6 6 6 6 6
9 9 9 9 9 9 9 8 8 8 8 8 8 8 8 8 8 8 8 8 8 8 8 8 8 8 8 8 7 7 7 7 7 7 6 6 6 6 6 6 6 5 5
8 8 8 8 8 8 8 8 8 8 8 8 8 8 8 8 7 8 8 8 8 7 7 7 7 7 7 7 7 7 7 7 7 7 6 6 6 6 6 5 5 5 5
8 8 8 8 8 8 8 8 7 7 7 7 7 7 7 7 7 7 7 7 7 7 7 7 7 7 7 7 7 7 7 7 7 7 6 6 6 6 5 5 5 5 5
7 7 7 7 7 7 7 7 7 7 7 7 7 7 7 7 7 7 7 7 7 7 7 7 7 7 7 7 7 7 7 7 6 6 6 6 6 5 5 5 5 5 4
7 7 7 7 7 7 7 7 7 7 7 7 7 7 7 7 7 7 6 6 6 7 7 6 6 6 7 7 7 6 6 6 6 6 6 5 5 5 5 5 4 4 4
6 6 6 6 6 6 6 6 6 6 6 6 6 6 6 6 6 6 6 6 6 6 6 6 6 6 6 6 6 6 6 6 6 6 5 5 5 5 4 4 4 4 4
Wind_Speed
3 4 4 3 3 3 4 4 4 4 4 5 5 4 4 3 3 3 3 3 3 2 2 2 2 2 2 2 2 2 2 2 2 1 1 0 0 1 2 3 2 2 2
3 3 3 3 2 3 4 4 4 4 4 5 5 4 4 4 3 4 4 3 4 3 3 3 2 2 2 2 2 2 2 2 3 2 0 0 0 1 1 1 2 1 1
2 2 2 2 3 3 3 3 3 4 4 4 5 5 5 4 4 4 4 4 4 4 4 4 4 4 3 2 3 3 2 2 2 3 1 0 0 0 1 1 1 2 1
2 2 2 3 3 3 2 2 3 3 4 4 5 5 5 5 5 4 4 4 4 3 4 4 4 5 5 5 4 4 4 3 3 3 2 1 0 0 1 1 1 1 1
2 2 3 3 2 2 2 2 2 3 3 3 4 4 4 4 4 5 4 4 4 3 3 3 4 5 6 5 4 5 6 4 4 3 2 1 1 1 2 1 1 0 1
3 3 3 2 2 2 2 2 2 2 2 2 3 4 4 4 6 7 6 4 4 4 3 3 3 4 5 6 6 8 8 6 6 4 3 4 4 4 2 2 2 1 1
3 2 2 2 3 3 2 2 2 2 2 3 3 4 4 5 6 7 8 5 4 4 4 3 3 3 3 3 4 6 6 7 8 6 6 6 5 6 5 3 3 3 2
3 2 2 2 3 3 2 2 2 2 2 3 3 4 4 5 6 7 8 4 4 3 4 4 4 3 3 4 4 3 3 4 5 5 6 6 6 6 6 5 4 2 0
4 4 3 3 3 3 3 3 2 2 2 2 3 4 4 4 6 7 7 4 3 3 3 3 4 4 5 5 5 4 2 2 4 6 6 6 6 6 7 4 3 3 1
5 4 4 4 4 4 5 4 2 2 3 2 2 3 4 4 5 7 8 4 4 3 2 3 5 5 6 6 6 6 5 4 3 2 2 3 3 5 7 6 5 4 2
3 3 3 3 4 4 4 3 3 2 2 2 2 2 3 4 5 7 8 5 5 4 3 3 4 6 7 7 6 6 7 4 3 3 2 1 1 2 3 5 5 5 4
3 3 4 3 3 3 4 3 3 3 3 2 1 1 2 3 4 5 8 7 6 5 4 4 4 6 7 7 6 6 6 5 3 3 2 2 2 2 2 3 4 4 4
3 4 3 3 3 3 4 4 3 3 3 2 2 3 3 2 3 5 6 7 7 5 4 5 5 5 5 4 6 7 5 4 4 3 4 4 3 2 2 1 1 2 1
4 4 3 3 3 3 3 4 4 4 4 3 3 4 3 3 3 3 3 4 5 4 3 3 3 4 3 3 3 3 3 4 4 4 4 3 2 2 2 2 1 1 1
4 4 3 4 4 4 3 3 5 5 6 5 5 5 4 5 6 6 5 4 4 4 3 2 1 2 2 2 2 2 2 3 4 3 3 3 3 3 2 2 2 1 2
4 4 4 3 3 3 3 2 3 4 5 6 6 5 5 6 5 5 6 6 6 6 4 3 4 4 5 5 4 4 3 4 4 4 4 4 4 4 3 2 2 3 4
5 5 4 4 4 4 4 4 3 2 3 4 5 6 5 5 4 5 6 6 6 7 4 5 5 6 5 5 5 5 5 5 4 5 5 5 4 4 4 4 4 3 4
5 5 5 4 4 4 5 5 4 4 3 3 4 6 6 6 5 5 5 3 3 4 5 5 6 6 6 5 5 5 5 4 4 5 5 5 5 5 5 5 5 5 5
5 5 5 5 4 4 4 4 4 4 4 3 2 3 5 4 4 4 5 4 5 5 6 6 6 6 6 6 6 6 6 5 5 5 5 6 5 5 6 6 6 7 6
5 6 5 4 4 4 4 4 4 4 4 4 4 4 2 2 2 3 4 4 5 6 6 6 6 6 6 6 6 6 6 6 6 6 6 6 6 6 7 7 6 6 6
4 5 6 5 5 5 5 5 5 5 5 5 5 6 6 5 5 6 5 6 6 6 6 6 6 6 6 6 6 7 7 7 7 7 7 7 7 7 6 6 6 6 6
4 5 5 5 5 5 5 5 5 5 5 6 5 5 7 5 5 5 6 6 6 6 6 6 6 6 7 7 7 7 8 8 8 8 8 7 7 7 7 6 6 6 6
5 5 5 5 5 5 5 5 5 5 5 6 5 4 5 5 5 6 6 6 6 6 5 6 6 6 6 7 8 8 9 9 9 8 8 8 7 7 7 8 8 7 7
5 5 5 5 5 5 5 5 5 5 6 6 5 5 5 5 6 6 6 5 5 5 5 6 7 8 9 8 8 9 10 11 10 10 10 9 8 7 7 7 8 8 8
4 5 5 5 5 5 5 5 5 6 5 5 5 5 5 5 5 5 5 5 5 5 6 6 6 7 9 10 9 9 11 12 12 10 9 8 8 8 8 8 7 7 7
4 4 4 4 5 5 5 5 5 5 5 5 4 4 4 5 5 5 4 4 4 4 5 5 6 8 8 8 9 10 11 11 12 12 9 7 8 8 8 7 8 8 7
Wind_Direction
200 198 193 197 195 190 197 204 201 198 189 191 188 179 175 174 166 160 168 159 156 154 151 149 156 153 145 140 131 129 130 134 154 254 253 287 103 64 55 63 57 57 50
194 192 195 190 176 191 209 209 197 197 196 195 184 180 182 183 177 179 186 178 175 176 177 162 174 163 153 154 150 149 153 149 154 173 228 351 179 163 100 73 56 55 38
158 171 182 186 184 200 216 206 195 196 194 190 183 186 188 187 186 192 190 188 189 191 188 185 188 171 177 172 163 155 152 139 129 148 162 30 97 97 78 56 47 29 33
154 166 185 202 202 202 194 188 193 191 191 193 193 193 188 185 189 190 182 182 187 196 199 195 194 190 189 176 171 165 150 132 126 135 148 149 166 73 108 115 4 3 354
175 190 216 215 198 183 176 181 188 186 193 191 183 186 180 181 192 182 180 183 183 190 200 204 205 202 199 187 179 171 159 151 149 153 169 168 197 182 197 188 198 310 332
191 218 219 194 183 188 187 178 174 178 173 177 184 181 185 198 192 187 176 178 180 186 200 212 220 214 207 204 195 183 175 170 174 173 187 195 213 211 192 182 168 141 276
200 221 212 196 193 199 185 160 177 184 178 189 198 191 199 208 201 195 187 172 179 192 201 204 220 219 201 188 195 189 196 198 190 181 186 203 204 203 187 189 194 193 221
199 216 214 198 200 185 170 183 190 174 182 198 206 203 203 212 202 195 185 170 177 192 202 202 201 211 199 177 167 177 201 218 207 194 196 208 209 197 190 194 185 167 327
213 217 215 201 192 181 185 196 191 173 190 206 199 194 201 219 208 195 173 159 177 202 210 207 202 207 213 185 167 178 206 244 219 204 210 214 211 200 179 146 147 149 229
224 221 211 197 191 196 201 198 190 186 196 192 200 199 201 214 213 200 180 168 183 204 215 218 215 211 213 198 183 182 204 226 195 185 198 212 208 199 191 188 183 179 189
218 203 201 200 200 202 195 185 179 181 173 180 200 217 217 223 219 205 188 181 189 193 205 219 226 219 214 207 200 201 210 195 174 173 177 192 187 196 203 203 198 188 189
197 198 201 201 205 200 183 181 174 172 173 192 204 249 250 242 225 216 204 200 190 187 208 216 221 218 212 209 208 213 204 176 154 156 172 205 218 227 225 209 204 197 205
193 205 209 202 200 186 182 181 177 178 184 203 207 233 251 253 244 227 213 210 206 202 212 214 216 211 207 210 212 205 187 169 166 183 206 223 225 213 184 165 186 173 202
195 203 200 198 204 195 190 187 188 192 199 207 216 228 241 239 238 229 221 216 211 211 212 212 211 204 195 204 211 202 188 186 185 201 212 210 177 176 194 191 205 194 218
203 202 201 202 203 200 199 205 205 207 202 205 215 217 216 236 239 224 211 208 203 199 171 150 162 175 189 201 208 205 196 191 202 200 195 197 198 203 217 204 194 194 207
208 210 208 201 200 197 198 227 248 231 228 223 222 221 231 238 246 220 218 217 206 186 164 188 204 205 207 209 209 212 211 209 209 202 201 202 205 208 212 209 203 214 226
209 213 209 202 202 202 203 204 228 270 257 238 232 233 235 237 236 219 212 209 201 181 188 207 213 214 216 214 213 213 216 214 205 200 205 209 209 210 210 215 214 226 233
210 214 210 207 206 208 210 212 207 210 230 254 244 233 235 234 231 220 202 171 195 199 212 217 222 220 217 216 216 217 216 205 202 206 209 212 210 209 212 217 216 221 228
211 215 213 210 209 210 210 210 212 213 220 233 240 242 234 232 233 221 187 195 211 220 226 228 228 224 221 218 217 215 212 212 209 205 211 213 212 212 219 221 220 221 227
219 224 217 208 206 208 209 210 215 217 224 230 231 230 207 192 221 223 214 218 222 227 229 232 232 228 222 218 216 213 214 216 213 215 215 214 214 214 219 221 222 222 228
221 221 216 211 210 211 212 215 217 216 223 234 238 230 208 208 220 224 222 226 227 228 230 233 235 232 227 220 217 216 216 220 219 219 216 215 212 217 222 222 224 227 231
217 216 214 213 213 214 218 218 217 220 225 234 248 239 222 218 222 225 225 228 229 229 227 229 234 232 225 219 218 219 221 222 221 221 221 217 215 216 216 218 221 225 230
217 216 219 220 214 217 218 219 218 222 226 232 234 231 224 227 229 231 231 231 230 231 232 229 234 240 235 230 224 218 221 223 222 217 215 216 215 215 214 217 218 221 227
217 218 219 219 217 215 217 221 224 228 230 231 231 229 228 231 235 240 242 237 236 240 238 235 236 238 238 238 236 231 230 228 221 216 213 214 215 216 215 217 219 221 225
223 222 219 217 218 220 220 223 228 232 234 232 229 230 231 235 239 244 246 239 237 239 245 245 245 244 243 242 242 242 237 229 223 218 212 212 212 211 211 215 218 219 222
223 222 222 220 220 222 221 223 227 228 228 231 231 231 234 239 244 245 246 242 241 245 252 253 250 251 255 252 245 242 238 230 224 220 214 211 211 213 213 217 217 216 216
Height
1537 1538 1539 1540 1541 1542 1543 1543 1544 1544 1545 1545 1546 1546 1547 1547 1547 1547 1548 1548 1548 1549 1549 1549 1549 1549 1550 1550 1550 1551 1551 1551 1551 1551 1552 1552 1553 1553 1553 1553 1553 1553 1553
1535 1536 1537 1538 1539 1539 1540 1541 1541 1542 1542 1543 1544 1544 1545 1545 1545 1546 1546 1547 1547 1547 1548 1548 1548 1548 1548 1548 1549 1549 1549 1550 1550 1550 1550 1551 1551 1552 1552 1552 1552 1552 1552
1533 1533 1535 1535 1536 1536 1537 1538 1538 1539 1540 1541 1541 1542 1542 1543 1543 1544 1544 1545 1545 1546 1546 1546 1546 1547 1547 1547 1547 1548 1548 1548 1549 1549 1549 1550 1550 1550 1550 1551 1551 1551 1551
1530 1531 1531 1532 1533 1533 1534 1535 1535 1536 1537 1538 1538 1539 1540 1540 1541 1542 1542 1543 1543 1544 1544 1544 1545 1545 1545 1546 1546 1546 1546 1546 1547 1547 1548 1548 1548 1549 1549 1549 1549 1549 1549
1528 1528 1529 1529 1530 1530 1531 1531 1532 1533 1533 1534 1535 1536 1537 1538 1538 1539 1540 1541 1541 1542 1542 1542 1543 1543 1543 1544 1544 1544 1545 1545 1545 1545 1546 1546 1546 1547 1547 1547 1547 1547 1547
1525 1525 1526 1526 1527 1527 1528 1528 1529 1529 1530 1531 1532 1533 1534 1535 1535 1536 1537 1538 1538 1539 1539 1540 1540 1541 1541 1542 1542 1542 1543 1543 1543 1543 1543 1544 1544 1545 1545 1545 1545 1545 1545
1522 1523 1523 1523 1523 1524 1524 1525 1525 1526 1527 1528 1529 1530 1530 1531 1532 1533 1534 1535 1536 1536 1537 1537 1537 1538 1538 1539 1540 1540 1540 1541 1542 1542 1541 1541 1542 1542 1543 1542 1542 1542 1542
1519 1519 1520 1520 1520 1521 1521 1521 1522 1522 1523 1524 1525 1526 1527 1528 1529 1530 1531 1532 1532 1533 1534 1534 1534 1535 1536 1536 1537 1537 1537 1538 1539 1539 1539 1539 1540 1540 1540 1541 1540 1540 1540
1515 1516 1516 1517 1517 1517 1517 1518 1518 1519 1520 1520 1522 1523 1524 1525 1526 1527 1528 1528 1529 1530 1530 1531 1531 1532 1532 1533 1534 1534 1534 1535 1536 1536 1536 1537 1537 1537 1537 1537 1537 1537 1536
1512 1513 1513 1513 1514 1514 1514 1515 1515 1516 1517 1517 1518 1520 1521 1522 1523 1524 1524 1525 1525 1526 1526 1527 1528 1528 1529 1530 1530 1531 1531 1532 1532 1533 1533 1533 1533 1534 1534 1534 1534 1534 1533
1509 1510 1510 1510 1510 1511 1511 1512 1512 1513 1513 1514 1515 1516 1517 1518 1520 1520 1521 1522 1522 1523 1523 1523 1524 1525 1525 1526 1526 1527 1527 1528 1528 1529 1529 1529 1529 1530 1530 1530 1530 1530 1530
1505 1506 1506 1506 1507 1507 1507 1508 1509 1509 1510 1511 1511 1512 1513 1515 1516 1517 1518 1518 1519 1520 1520 1520 1520 1521 1521 1522 1522 1523 1524 1524 1524 1525 1525 1525 1525 1525 1526 1526 1526 1526 1526
1501 1501 1502 1503 1503 1503 1504 1504 1505 1506 1506 1507 1508 1508 1509 1510 1511 1513 1514 1515 1515 1516 1516 1517 1517 1517 1518 1518 1518 1519 1519 1519 1520 1520 1520 1521 1521 1521 1521 1522 1522 1522 1522
1496 1497 1497 1498 1499 1499 1500 1501 1501 1502 1502 1503 1503 1504 1505 1506 1507 1508 1509 1510 1511 1511 1512 1513 1513 1513 1514 1514 1514 1514 1514 1515 1515 1516 1516 1517 1517 1517 1517 1517 1517 1517 1518
1492 1492 1493 1494 1494 1495 1496 1496 1497 1498 1499 1499 1499 1500 1500 1501 1502 1503 1504 1505 1505 1506 1507 1508 1508 1508 1508 1509 1509 1510 1510 1510 1511 1511 1512 1512 1513 1513 1513 1513 1513 1513 1513
1488 1488 1488 1489 1490 1491 1492 1492 1493 1494 1495 1495 1496 1496 1496 1497 1498 1499 1500 1500 1501 1502 1502 1502 1503 1503 1503 1504 1504 1505 1505 1505 1506 1507 1507 1507 1508 1508 1508 1508 1508 1509 1508
1483 1484 1484 1485 1485 1486 1487 1487 1488 1489 1490 1491 1491 1491 1492 1492 1493 1494 1494 1495 1496 1496 1497 1497 1497 1498 1498 1499 1499 1500 1500 1501 1501 1501 1502 1502 1502 1503 1503 1503 1503 1503 1503
1478 1479 1480 1480 1481 1482 1482 1483 1483 1484 1484 1484 1486 1486 1487 1487 1488 1488 1489 1490 1490 1490 1490 1491 1491 1492 1493 1493 1494 1494 1494 1495 1496 1496 1496 1497 1497 1497 1497 1497 1498 1498 1498
1473 1474 1474 1475 1476 1477 1478 1478 1479 1479 1479 1479 1480 1481 1481 1482 1482 1483 1483 1484 1484 1484 1485 1485 1486 1486 1487 1487 1488 1488 1489 1489 1490 1490 1490 1491 1491 1491 1491 1492 1492 1492 1492
1467 1468 1469 1470 1470 1471 1472 1473 1473 1473 1474 1474 1474 1474 1475 1476 1476 1476 1477 1477 1478 1478 1479 1480 1480 1480 1481 1481 1482 1482 1483 1483 1483 1484 1484 1485 1485 1485 1485 1485 1486 1486 1486
1462 1463 1464 1464 1465 1466 1466 1467 1468 1468 1468 1468 1469 1470 1470 1470 1470 1470 1471 1471 1472 1472 1473 1474 1474 1474 1475 1475 1476 1476 1476 1476 1477 1477 1477 1478 1478 1479 1479 1479 1479 1480 1479
1456 1456 1457 1458 1459 1460 1461 1461 1462 1462 1463 1463 1463 1464 1464 1465 1465 1465 1465 1465 1466 1466 1467 1467 1468 1468 1468 1468 1469 1469 1469 1469 1469 1470 1470 1471 1471 1471 1472 1472 1473 1473 1473
1450 1450 1451 1452 1453 1454 1455 1455 1456 1457 1457 1458 1458 1458 1458 1458 1458 1459 1459 1459 1459 1460 1460 1460 1461 1461 1461 1462 1462 1462 1462 1462 1462 1463 1463 1464 1464 1464 1465 1465 1465 1466 1466
1443 1444 1445 1446 1447 1448 1448 1449 1450 1451 1451 1452 1452 1452 1452 1452 1452 1453 1453 1453 1453 1454 1454 1454 1454 1454 1454 1454 1454 1454 1454 1455 1455 1456 1456 1456 1457 1457 1458 1458 1458 1459 1459
1437 1438 1439 1440 1441 1441 1442 1443 1444 1445 1445 1445 1445 1445 1446 1446 1446 1446 1447 1447 1447 1447 1448 1448 1448 1447 1447 1447 1447 1447 1447 1447 1448 1448 1449 1449 1449 1450 1450 1451 1451 1452 1452
1432 1432 1433 1434 1434 1435 1436 1437 1438 1438 1438 1439 1439 1440 1440 1440 1440 1440 1440 1441 1441 1441 1441 1441 1441 1440 1440 1439 1439 1439 1440 1440 1440 1441 1441 1441 1442 1442 1443 1443 1444 1445 1445